DL8NDG-13 Weather Reports


Display with metric or nautical units.
time (UTC)temp
F
wind
direction
speed
MPH
gust
MPH
rain 1hr
in
rain 24hr
in
rain mn
in
humidity
%
barometer
mb
20260906221546 54 62 0.0 0.0 0.00 0.00 0.00 80 1023.5
20260906220116 55 62 0.0 0.0 0.00 0.00 0.00 79 1023.7
20260906214541 55 62 0.0 0.0 0.00 0.00 0.00 79 1023.7
20260906213048 55 67 0.0 0.0 0.00 0.00 0.00 77 1023.7
20260906211540 56 67 0.0 0.0 0.00 0.00 0.00 76 1023.8
20260906210055 56 62 0.0 0.0 0.00 0.00 0.00 75 1023.8
20260906204537 56 62 0.0 0.0 0.00 0.00 0.00 74 1023.8
20260906203038 57 62 0.0 0.0 0.00 0.00 0.00 74 1023.7
20260906201535 57 67 0.0 0.0 0.00 0.00 0.00 74 1023.7
20260906200045 58 63 0.0 0.0 0.00 0.00 0.00 73 1023.8
20260906194543 58 62 0.0 0.0 0.00 0.00 0.00 72 1023.8
20260906193034 59 62 0.0 0.0 0.00 0.00 0.00 72 1023.9
20260906191533 60 67 0.0 0.0 0.00 0.00 0.00 71 1023.8
20260906190034 61 62 0.0 0.0 0.00 0.00 0.00 69 1023.9
20260906184534 62 63 0.0 0.0 0.00 0.00 0.00 67 1024.0
20260906183038 63 62 0.0 0.0 0.00 0.00 0.00 63 1023.9
20260906181538 65 70 0.0 0.0 0.00 0.00 0.00 59 1023.8
20260906180039 66 67 0.0 0.0 0.00 0.00 0.00 55 1023.7
20260906174537 67 62 0.0 0.0 0.00 0.00 0.00 55 1023.7
20260906173028 68 62 0.0 0.0 0.00 0.00 0.00 52 1023.7
20260906171526 69 62 0.0 0.0 0.00 0.00 0.00 49 1024.0
20260906170128 70 62 0.0 0.0 0.00 0.00 0.00 46 1024.1
20260906164537 71 67 0.0 0.0 0.00 0.00 0.00 44 1024.1
20260906163034 70 63 0.0 0.0 0.00 0.00 0.00 44 1024.1
20260906161523 71 62 0.0 0.0 0.00 0.00 0.00 44 1024.1
20260906160033 72 62 0.0 0.0 0.00 0.00 0.00 41 1024.1
20260906154522 72 61 0.0 0.0 0.00 0.00 0.00 41 1024.1
20260906153021 73 67 0.0 0.0 0.00 0.00 0.00 40 1024.3
20260906151520 73 63 0.0 0.0 0.00 0.00 0.00 42 1024.2
20260906150040 73 62 0.0 0.0 0.00 0.00 0.00 42 1024.5
20260906144530 73 61 0.0 0.0 0.00 0.00 0.00 41 1024.5
20260906143023 74 36 0.0 0.0 0.00 0.00 0.00 42 1024.6
20260906141640 74 35 0.0 0.0 0.00 0.00 0.00 44 1024.9
20260906140020 74 37 0.0 0.0 0.00 0.00 0.00 43 1025.0
20260906134515 74 36 0.0 0.0 0.00 0.00 0.00 42 1025.2
20260906133013 74 37 0.0 0.0 0.00 0.00 0.00 44 1025.2
20260906131523 73 41 0.0 0.0 0.00 0.00 0.00 44 1025.2
20260906130010 73 32 0.0 0.0 0.00 0.00 0.00 46 1025.4
20260906124509 73 41 0.0 0.0 0.00 0.00 0.00 45 1025.5
20260906123011 72 38 0.0 0.0 0.00 0.00 0.00 47 1025.6
20260906121508 72 39 0.0 0.0 0.00 0.00 0.00 49 1025.5
20260906120004 71 65 0.0 0.0 0.00 0.00 0.00 53 1025.8
20260906114502 70 71 0.0 0.0 0.00 0.00 0.00 49 1025.8
20260906113105 69 75 0.0 0.0 0.00 0.00 0.00 52 1026.0
20260906111558 69 76 0.0 0.0 0.00 0.00 0.00 53 1026.3
20260906110056 68 49 0.0 0.0 0.00 0.00 0.00 52 1026.3
20260906104613 68 53 0.0 0.0 0.00 0.00 0.00 55 1026.5
20260906103050 68 53 0.0 0.0 0.00 0.00 0.00 58 1026.7
20260906101547 68 50 0.0 0.0 0.00 0.00 0.00 59 1026.8
20260906100046 66 24 0.0 0.0 0.00 0.00 0.00 61 1026.8
20260906094606 65 14 0.0 0.0 0.00 0.00 0.00 60 1026.9
20260906093039 65 13 0.0 0.0 0.00 0.00 0.00 61 1027.2
20260906091540 65 272 0.0 0.0 0.00 0.00 0.00 64 1027.1
20260906090028 64 19 0.0 0.0 0.00 0.00 0.00 63 1027.1
20260906084530 63 19 0.0 0.0 0.00 0.00 0.00 66 1027.2
20260906083020 61 11 0.0 0.0 0.00 0.00 0.00 72 1027.1
20260906081539 60 271 0.0 0.0 0.00 0.00 0.00 72 1027.1
20260906080019 60 266 0.0 0.0 0.00 0.00 0.00 74 1027.1
20260906074515 58 252 0.0 0.0 0.00 0.00 0.00 79 1027.0
20260906073010 56 258 0.0 0.0 0.00 0.00 0.00 84 1026.9
20260906071508 55 238 0.0 0.0 0.00 0.00 0.00 85 1026.8
20260906070008 54 240 0.0 0.0 0.00 0.00 0.00 84 1026.8
20260906064508 53 236 0.0 0.0 0.00 0.00 0.00 84 1026.7
20260906063008 52 235 0.0 0.0 0.00 0.00 0.00 83 1026.7
20260906061507 51 256 0.0 0.0 0.00 0.00 0.00 84 1026.7
20260906060004 50 256 0.0 0.0 0.00 0.00 0.00 85 1026.5
20260906054500 49 238 0.0 0.0 0.00 0.00 0.00 85 1026.5
20260906053106 49 256 0.0 0.0 0.00 0.00 0.00 85 1026.3
20260906051558 49 238 0.0 0.0 0.00 0.00 0.00 85 1026.0
20260906050114 49 252 0.0 0.0 0.00 0.00 0.00 85 1025.8
20260906044556 49 250 0.0 0.0 0.00 0.00 0.00 85 1026.0
20260906043053 49 250 0.0 0.0 0.00 0.00 0.00 85 1025.8
20260906041551 49 250 0.0 0.0 0.00 0.00 0.00 85 1025.7
20260906034559 50 284 0.0 0.0 0.00 0.01 0.00 84 1025.6
20260906033045 51 249 0.0 0.0 0.00 0.01 0.00 84 1025.6
20260906031549 51 270 0.0 0.0 0.00 0.01 0.00 83 1025.6
20260906030039 52 270 0.0 0.0 0.00 0.01 0.00 83 1025.5
20260906024536 53 271 0.0 0.0 0.00 0.07 0.00 82 1025.6
20260906023034 53 273 0.0 0.0 0.00 0.07 0.00 81 1025.6
20260906021533 54 252 0.0 0.0 0.00 0.07 0.00 81 1025.5
20260906020048 53 250 0.0 0.0 0.00 0.07 0.00 81 1025.4
20260906014534 54 250 0.0 0.0 0.00 0.09 0.00 81 1025.3
20260906013028 54 250 0.0 0.0 0.00 0.09 0.00 80 1025.1
20260906011528 54 271 0.0 0.0 0.00 0.09 0.00 79 1025.0
20260906010027 55 273 0.0 0.0 0.00 0.09 0.00 79 1025.0
20260906004526 54 252 0.0 0.0 0.00 0.19 0.00 80 1025.0
20260906003027 54 250 0.0 0.0 0.00 0.19 0.00 80 1025.1
20260906001626 54 250 0.0 0.0 0.00 0.19 0.00 80 1024.9
20260906000023 54 251 0.0 0.0 0.00 0.19 0.00 81 1024.9
20260905234519 54 250 0.0 0.0 0.00 0.19 0.00 80 1024.7
20260905233018 55 273 0.0 0.0 0.00 0.19 0.00 79 1024.6
20260905231515 55 271 0.0 0.0 0.00 0.19 0.00 79 1024.6
20260905230013 55 270 0.0 0.0 0.00 0.19 0.00 79 1024.4
20260905224512 55 252 0.0 0.0 0.00 0.21 0.00 79 1024.3
20260905223028 55 252 0.0 0.0 0.00 0.21 0.00 78 1024.0